Regional Weather Roundup
Issued by NWS

Home | Current Version | Previous Version | Text Only | Print | Product List | Glossary On
Versions: 1 2 3 4 5 6 7 8 9 10 11 12 13 14 15 16 17 18 19 20 21 22 23 24 25 26 27 28 29 30 31 32 33 34 35 36 37 38 39 40 41 42 43 44 45 46 47 48 49 50
000
ASUS46 KSEW 010110
RWRWA

WASHINGTON REGIONAL WEATHER ROUNDUP
NATIONAL WEATHER SERVICE SEATTLE WA
500 PM PST SAT JAN 31 2015

NOTE:"FAIR" INDICATES FEW OR NO CLOUDS BELOW 12,000 FEET WITH NO
SIGNIFICANT WEATHER AND/OR OBSTRUCTIONS TO VISIBILITY.

WAZ505-507>509-010200-
SEATTLE, TACOMA, EVERETT, AND VICINITY

CITY           SKY/WX    TMP DP  RH WIND       PRES   REMARKS
EVERETT        CLOUDY    41  39  93 N3        30.17R FOG
BOEING FIELD   CLOUDY    46  39  76 NW3       30.18R
RENTON         CLOUDY    44  40  85 CALM      30.18R
SEATAC AIRPORT CLOUDY    43  39  86 CALM      30.18R
JBLM-MCCHORD   CLOUDY    42  42  99 E5        30.16S
PUYALLUP       CLOUDY    41  41 100 CALM      30.16S FOG
BREMERTON      CLOUDY    43  43 100 NE3       30.19S
JBLM-FT LEWIS  CLOUDY    43  42  99 NE5       30.16S
TACOMA NARROWS CLOUDY    43  40  89 CALM      30.17S FOG
$$

WAZ001-503-506-510-514-515-010200-
NORTH INTERIOR

CITY           SKY/WX    TMP DP  RH WIND       PRES   REMARKS
BELLINGHAM     CLOUDY    47  38  71 W5        30.18R
FRIDAY HARBOR  CLOUDY    43  40  89 NW3       30.19F
EASTSOUND      CLOUDY    41  41 100 N7        30.18F FOG
PORT ANGELES   CLOUDY    44  40  85 S3        30.18F
NAS WHIDBEY    CLOUDY    46  41  82 W3        30.19S
ARLINGTON      CLOUDY    43  37  81 CALM      30.19R
BURLINGTON     CLEAR     45 N/A N/A NW5       30.20R
$$

WAZ020-022-039-040-504-511-512-010200-
SOUTHWEST INTERIOR

CITY           SKY/WX    TMP DP  RH WIND       PRES   REMARKS
SHELTON        CLOUDY    44  41  89 NE3       30.13F
OLYMPIA        CLOUDY    44  40  85 NE5       30.16F
CHEHALIS       CLOUDY    45  43  93 E5        30.14F
KELSO          MOCLDY    43  37  81 N7        30.17F
VANCOUVER      CLOUDY    46  35  65 CALM      30.14S
SCAPPOOSE, OR  CLOUDY    44  39  82 CALM      30.15R
PORTLAND, OR   CLOUDY    45  36  70 CALM      30.14F
$$

WAZ021-516-517-010200-
WASHINGTON COAST

CITY           SKY/WX    TMP DP  RH WIND       PRES   REMARKS
FORKS          CLOUDY    52  43  71 NE5       30.11S
HOQUIAM        CLOUDY    48  42  80 E12       30.12S
ASTORIA, OR    MOCLDY    50  42  74 E3        30.08F
$$

WAZ019-023-024-040-518-519-010200-
CASCADE MOUNTAINS AND COLUMBIA GORGE

CITY           SKY/WX    TMP DP  RH WIND       PRES   REMARKS
TROUTDALE, OR  MOCLDY    44  33  65 E22G32    30.13S
THE DALLES, OR CLOUDY    40  32  73 E6        30.32F
$$

WAZ026-027-041>044-520-521-010200-
EAST SLOPES

CITY           SKY/WX    TMP DP  RH WIND       PRES   REMARKS
OMAK           CLOUDY    36  29  75 S6        30.30S
WENATCHEE      CLOUDY    38  31  76 E7        30.30S
ELLENSBURG     CLOUDY    37  30  75 SE3       30.27S
YAKIMA         CLOUDY    38  31  76 S5        30.31S
$$

WAZ028-034-035-010200-
COLUMBIA BASIN

CITY           SKY/WX    TMP DP  RH WIND       PRES   REMARKS
EPHRATA        CLOUDY    36  32  85 CALM      30.30S
MOSES LAKE     CLOUDY    36  30  79 SW3       30.32R
PASCO          CLOUDY    39  33  79 E3        30.34F
HERMISTON, OR  CLOUDY    39  32  76 NE6       30.31F
$$

WAZ036>038-010200-
NORTHEAST WASHINGTON

CITY           SKY/WX    TMP DP  RH WIND       PRES   REMARKS
SPOKANE GEIGER CLOUDY    32  27  81 CALM      30.27R
SPOKANE FELTS  CLOUDY    34  28  79 CALM      30.29F
FAIRCHILD AFB  MIX PCPN  31  31  99 S2        30.26S
COEURDALENE,ID CLOUDY    34  27  75 CALM      30.26S
DEER PARK      CLOUDY    32  27  81 E3        30.28S
$$

WAZ029>033-010200-
SOUTHEAST WASHINGTON

CITY           SKY/WX    TMP DP  RH WIND       PRES   REMARKS
PULLMAN        CLOUDY    33  28  81 SW5       30.27S
LEWISTON, ID   CLOUDY    37  30  75 SW3       30.30F
WALLA WALLA    CLOUDY    37  31  78 CALM      30.29S
PENDLETON, OR  CLOUDY    35  31  85 CALM      30.27F
$$



USA.gov is the U.S. government's official web portal to all federal, state and local government web resources and services.